Location: Vale
(35.4830°N, 81.3830°W)
Time: 04:04:21
(UTC-04:00)

SR - All Passes

Search period start: 02 July 2015 00:00
Search period end: 12 July 2015 00:00
Orbit: 583 x 877 km, 66.7° (Epoch: 01 July)

Date Brightness Start Highest point End Pass type
(mag) Time Alt. Az. Time Alt. Az. Time Alt. Az.
02 Jul - 00:46:43 10° S 00:50:38 38° ESE 00:54:37 10° NE visible
02 Jul - 02:30:04 10° W 02:32:55 17° NW 02:35:41 10° N visible
02 Jul - 09:30:10 10° N 09:33:28 18° NE 09:37:05 10° E daylight
02 Jul - 11:10:58 10° NW 11:15:54 57° WSW 11:21:14 10° S daylight
02 Jul - 23:59:21 10° SE 00:01:52 16° ESE 00:04:35 10° ENE visible
03 Jul - 01:39:45 10° SW 01:43:41 36° WNW 01:47:38 10° N visible
03 Jul - 10:21:58 10° NNW 10:26:59 70° ENE 10:32:24 10° SE daylight
03 Jul - 12:06:22 10° W 12:08:47 13° WSW 12:10:55 10° SW daylight
04 Jul - 00:50:25 10° SSW 00:54:40 87° WNW 00:58:57 10° NNE visible
04 Jul - 09:33:24 10° N 09:37:54 34° ENE 09:42:48 10° ESE daylight
04 Jul - 11:15:37 10° NW 11:19:58 27° WSW 11:24:29 10° SSW daylight
05 Jul - 00:01:56 10° S 00:05:49 37° ESE 00:09:47 10° NE visible
05 Jul - 01:45:11 10° W 01:48:05 17° NW 01:50:55 10° N visible
05 Jul - 08:45:22 10° N 08:48:39 18° NE 08:52:16 10° E daylight
05 Jul - 10:26:08 10° NW 10:31:07 58° WSW 10:36:29 10° SSE daylight
05 Jul - 23:14:37 10° SE 23:17:04 16° ESE 23:19:42 10° ENE visible
06 Jul - 00:54:54 10° SW 00:58:51 37° WNW 01:02:50 10° N visible
06 Jul - 09:37:09 10° NNW 09:42:10 68° ENE 09:47:38 10° SE daylight
06 Jul - 11:21:25 10° WNW 11:23:59 13° WSW 11:26:19 10° SW daylight
07 Jul - 00:05:36 10° SSW 00:09:51 89° WNW 00:14:09 10° NNE visible
07 Jul - 08:48:35 10° N 08:53:06 33° ENE 08:58:00 10° ESE daylight
07 Jul - 10:30:46 10° NW 10:35:10 28° WSW 10:39:47 10° SSW daylight
07 Jul - 23:17:08 10° S 23:21:00 36° ESE 23:24:56 10° NE visible
08 Jul - 01:00:17 10° W 01:03:15 18° NW 01:06:09 10° N visible
08 Jul - 08:00:34 10° N 08:03:50 18° NE 08:07:26 10° E daylight
08 Jul - 09:41:18 10° NW 09:46:19 60° WSW 09:51:44 10° SSE daylight
08 Jul - 22:29:54 10° SE 22:32:15 15° ESE 22:34:48 10° ENE visible
09 Jul - 00:10:04 10° SW 00:14:01 37° WNW 00:18:02 10° N visible
09 Jul - 08:52:20 10° NNW 08:57:23 67° ENE 09:02:51 10° SE daylight
09 Jul - 10:36:28 10° WNW 10:39:12 14° WSW 10:41:41 10° SW daylight
09 Jul - 23:20:47 10° SSW 23:25:01 89° ESE 23:29:20 10° NNE visible
10 Jul - 08:03:47 10° N 08:08:18 33° ENE 08:13:13 10° ESE daylight
10 Jul - 09:45:55 10° NW 09:50:23 29° WSW 09:55:03 10° SSW daylight
10 Jul - 22:32:21 10° S 22:36:11 35° ESE 22:40:06 10° NE visible
11 Jul - 00:15:24 10° W 00:18:26 18° NW 00:21:23 10° N visible
11 Jul - 07:15:46 10° N 07:19:02 17° NE 07:22:37 10° E daylight
11 Jul - 08:56:27 10° NW 09:01:32 61° WSW 09:06:59 10° SSE daylight
11 Jul - 21:45:10 10° SE 21:47:26 15° ESE 21:49:55 10° ENE visible
11 Jul - 23:25:13 10° SW 23:29:11 39° WNW 23:33:14 10° NNE visible
